Weather History for Mackinac Island, MI

Change the Weather History Date:

Wednesday, March 9, 2011

  Actual Average Record
Temperature  
Mean Temperature 27 °F -  
Max Temperature 30 °F 27 °F 48 °F (2002)
Min Temperature 24 °F 14 °F -5 °F (2003)
Degree Days  
Heating Degree Days 38    
Moisture  
Dew Point 25 °F    
Average Humidity 89    
Maximum Humidity 100    
Minimum Humidity 80    
Precipitation  
Precipitation 0.02 in - - ()
Sea Level Pressure  
Sea Level Pressure 30.07 in    
Wind  
Wind Speed 8 mph (East)    
Max Wind Speed 12 mph    
Max Gust Speed 22 mph    
Visibility 6 miles    
Events Snow    
Averages and records for this station are not official NWS values.
T = Trace of Precipitation, MM = Missing Value Source: NWS Daily Summary

Daily Weather History Graph

Daily Weather History Graph

Search for Another Location

Airport:

Trip Planner

Search our weather history database for the weather conditions in past years. The results will help you decide how hot, cold, wet, or windy it might be!

Date:

Astronomy

Mar. 09, 2011 Rise Set
Actual Time 7:03 AM EST 6:35 PM EST
Civil Twilight 6:33 AM EST 7:05 PM EST
Nautical Twilight 5:58 AM EST 7:40 PM EST
Astronomical Twilight 5:23 AM EST 8:15 PM EST
Moon 8:35 AM EST (3/9) 11:53 PM EST (3/9)
Length of Visible Light 12h 32m
Length of Day
11h 32m
Waxing Crescent, 20% of the Moon is Illuminated
Mar 9
Waxing Crescent
Mar 12
First Quarter
Mar 19
Full
Mar 26
Last Quarter
Apr 3
New

Hourly Weather History & Observations

Time (EST) Temp. Windchill Dew Point Humidity Pressure Visibility Wind Dir Wind Speed Gust Speed Precip Events Conditions
12:12 AM 26.6 °F 18.2 °F 24.8 °F 93% 30.28 in 10.0 mi East 8.1 mph - N/A   Overcast
12:32 AM 26.6 °F 18.2 °F 24.8 °F 93% 30.29 in 10.0 mi ESE 8.1 mph - N/A   Overcast
12:52 AM 26.6 °F 20.0 °F 24.8 °F 93% 30.28 in 10.0 mi ESE 5.8 mph - N/A   Scattered Clouds
1:12 AM 26.6 °F 18.2 °F 23.0 °F 86% 30.27 in 10.0 mi East 8.1 mph - N/A   Clear
1:32 AM 24.8 °F 16.1 °F 23.0 °F 93% 30.27 in 10.0 mi East 8.1 mph - N/A   Clear
1:52 AM 24.8 °F 17.9 °F 23.0 °F 93% 30.26 in 10.0 mi East 5.8 mph 18.4 mph N/A   Scattered Clouds
2:12 AM 26.6 °F 18.2 °F 23.0 °F 86% 30.26 in 10.0 mi East 8.1 mph - N/A   Overcast
2:32 AM 26.6 °F 19.1 °F 23.0 °F 86% 30.25 in 10.0 mi East 6.9 mph - N/A   Overcast
2:52 AM 26.6 °F 18.2 °F 23.0 °F 86% 30.25 in 10.0 mi East 8.1 mph - N/A   Overcast
3:32 AM 26.6 °F 19.1 °F 21.2 °F 80% 30.22 in 10.0 mi East 6.9 mph - N/A   Overcast
3:52 AM 26.6 °F 17.5 °F 21.2 °F 80% 30.21 in 10.0 mi East 9.2 mph 16.1 mph N/A   Overcast
4:12 AM 26.6 °F 17.5 °F 21.2 °F 80% 30.20 in 10.0 mi East 9.2 mph 18.4 mph N/A   Overcast
4:32 AM 26.6 °F 18.2 °F 23.0 °F 86% 30.20 in 10.0 mi East 8.1 mph 16.1 mph N/A   Overcast
4:52 AM 26.6 °F 19.1 °F 23.0 °F 86% 30.20 in 10.0 mi East 6.9 mph 16.1 mph N/A   Overcast
5:12 AM 26.6 °F 17.5 °F 23.0 °F 86% 30.20 in 10.0 mi East 9.2 mph 16.1 mph N/A   Overcast
5:32 AM 26.6 °F 17.5 °F 23.0 °F 86% 30.19 in 10.0 mi East 9.2 mph - N/A   Overcast
5:52 AM 26.6 °F 19.1 °F 23.0 °F 86% 30.20 in 10.0 mi East 6.9 mph - N/A   Overcast
6:12 AM 28.4 °F 19.7 °F 24.8 °F 86% 30.18 in 10.0 mi East 9.2 mph 17.3 mph N/A   Overcast
6:32 AM 28.4 °F 20.4 °F 24.8 °F 86% 30.17 in 10.0 mi East 8.1 mph 17.3 mph N/A   Overcast
6:52 AM 28.4 °F 20.4 °F 23.0 °F 80% 30.16 in 7.0 mi East 8.1 mph 16.1 mph N/A Snow Light Snow
7:12 AM 28.4 °F 21.2 °F 24.8 °F 86% 30.16 in 3.0 mi East 6.9 mph 16.1 mph N/A Snow Light Snow
7:32 AM 28.4 °F 20.4 °F 23.0 °F 80% 30.15 in 10.0 mi East 8.1 mph 18.4 mph N/A   Overcast
7:52 AM 28.4 °F 19.1 °F 23.0 °F 80% 30.14 in 10.0 mi East 10.4 mph 18.4 mph N/A   Overcast
8:12 AM 28.4 °F 20.4 °F 23.0 °F 80% 30.15 in 10.0 mi East 8.1 mph 18.4 mph N/A   Overcast
8:32 AM 28.4 °F 19.1 °F 23.0 °F 80% 30.15 in 10.0 mi East 10.4 mph 18.4 mph N/A   Overcast
8:52 AM 28.4 °F 21.2 °F 23.0 °F 80% 30.14 in 10.0 mi East 6.9 mph 17.3 mph N/A   Overcast
9:13 AM 28.4 °F 19.1 °F 23.0 °F 80% 30.14 in 10.0 mi East 10.4 mph 18.4 mph N/A   Overcast
9:32 AM 26.6 °F 16.2 °F 23.0 °F 86% 30.12 in 10.0 mi East 11.5 mph 18.4 mph N/A   Overcast
9:52 AM 26.6 °F 19.1 °F 21.2 °F 80% 30.11 in 10.0 mi East 6.9 mph 21.9 mph N/A   Overcast
10:12 AM 26.6 °F 18.2 °F 21.2 °F 80% 30.11 in 10.0 mi East 8.1 mph 17.3 mph N/A   Overcast
10:32 AM 26.6 °F 17.5 °F 21.2 °F 80% 30.11 in 10.0 mi East 9.2 mph - N/A   Overcast
10:52 AM 26.6 °F 20.0 °F 21.2 °F 80% 30.09 in 7.0 mi East 5.8 mph - N/A Snow Light Snow
11:12 AM 26.6 °F 17.5 °F 23.0 °F 86% 30.08 in 1.8 mi East 9.2 mph 17.3 mph N/A Snow Light Snow
11:33 AM 26.6 °F 22.6 °F 23.0 °F 86% 30.06 in 1.8 mi East 3.5 mph - N/A Snow Light Snow
11:52 AM 26.6 °F 20.0 °F 23.0 °F 86% 30.06 in 1.2 mi East 5.8 mph - N/A Snow Light Snow
12:12 PM 26.6 °F 18.2 °F 24.8 °F 93% 30.03 in 1.5 mi East 8.1 mph 18.4 mph N/A Snow Light Snow
12:32 PM 26.6 °F 19.1 °F 24.8 °F 93% 30.02 in 2.5 mi East 6.9 mph 18.4 mph N/A Snow Light Snow
12:52 PM 26.6 °F 20.0 °F 26.6 °F 100% 30.01 in 1.0 mi East 5.8 mph 18.4 mph N/A Snow Light Snow
1:12 PM 26.6 °F 17.5 °F 26.6 °F 100% 29.99 in 0.5 mi East 9.2 mph 18.4 mph N/A Snow Snow
2:12 PM 28.4 °F 19.7 °F 26.6 °F 93% 29.95 in 0.8 mi East 9.2 mph - N/A Snow Light Snow
2:32 PM 28.4 °F 22.2 °F 26.6 °F 93% 29.94 in 0.5 mi East 5.8 mph 18.4 mph N/A Snow Light Snow
2:52 PM 28.4 °F 22.2 °F 26.6 °F 93% 29.92 in 0.8 mi East 5.8 mph 17.3 mph N/A Snow Light Snow
3:12 PM 28.4 °F 20.4 °F 28.4 °F 100% 29.92 in 0.8 mi East 8.1 mph - N/A Snow Light Snow
4:12 PM 30.2 °F 21.9 °F 28.4 °F 93% 29.92 in 0.8 mi East 9.2 mph 19.6 mph 0.01 in Snow Light Snow
4:32 PM 30.2 °F 23.4 °F 28.4 °F 93% 29.90 in 1.0 mi East 6.9 mph 17.3 mph 0.01 in Snow Light Snow
5:12 PM 30.2 °F 21.3 °F 28.4 °F 93% 29.88 in 2.5 mi East 10.4 mph 17.3 mph N/A Snow Light Snow
5:32 PM 30.2 °F 21.9 °F 28.4 °F 93% 29.88 in 2.5 mi East 9.2 mph 16.1 mph N/A Snow Light Snow
5:52 PM 30.2 °F 22.6 °F 28.4 °F 93% 29.88 in 1.0 mi East 8.1 mph - N/A Snow Light Snow
6:12 PM 30.2 °F 22.6 °F 30.2 °F 100% 29.88 in 0.8 mi East 8.1 mph 18.4 mph N/A Snow Light Snow
6:32 PM 30.2 °F 24.3 °F 30.2 °F 100% 29.88 in 1.0 mi East 5.8 mph - N/A Snow Light Snow
6:52 PM 30.2 °F 23.4 °F 30.2 °F 100% 29.88 in 1.8 mi East 6.9 mph - N/A Snow Light Snow
7:12 PM 30.2 °F 25.4 °F 28.4 °F 93% 29.87 in 1.8 mi ENE 4.6 mph - N/A Snow Light Snow
7:32 PM 30.2 °F 23.4 °F 28.4 °F 93% 29.87 in 2.0 mi ENE 6.9 mph - N/A Snow Light Snow
7:53 PM 30.2 °F 24.3 °F 28.4 °F 93% 29.86 in 1.5 mi East 5.8 mph 17.3 mph 0.01 in Snow Light Snow
8:12 PM 30.2 °F 24.3 °F 28.4 °F 93% 29.86 in 1.8 mi ENE 5.8 mph - N/A Snow Light Snow
8:33 PM 30.2 °F 23.4 °F 28.4 °F 93% 29.86 in 2.5 mi ENE 6.9 mph 16.1 mph N/A Snow Light Snow
8:52 PM 30.2 °F 24.3 °F 28.4 °F 93% 29.86 in 2.5 mi ENE 5.8 mph - N/A Snow Light Snow
9:12 PM 30.2 °F 22.6 °F 28.4 °F 93% 29.85 in 2.5 mi ENE 8.1 mph - N/A Snow Light Snow
9:32 PM 30.2 °F 23.4 °F 28.4 °F 93% 29.85 in 4.0 mi ENE 6.9 mph - N/A Snow Light Snow
9:52 PM 30.2 °F 24.3 °F 28.4 °F 93% 29.85 in 3.0 mi ENE 5.8 mph - N/A Snow Light Snow
10:12 PM 30.2 °F 24.3 °F 28.4 °F 93% 29.85 in 2.5 mi ENE 5.8 mph - N/A Snow Light Snow
10:32 PM 30.2 °F 24.3 °F 28.4 °F 93% 29.85 in 2.5 mi NE 5.8 mph - 0.01 in Snow Light Snow
11:12 PM 30.2 °F 24.3 °F 28.4 °F 93% 29.85 in 2.0 mi ENE 5.8 mph - N/A Snow Light Snow
11:32 PM 30.2 °F 25.4 °F 28.4 °F 93% 29.84 in 4.0 mi ENE 4.6 mph - 0.01 in Snow Light Snow